Probability
3 3 3 3 6 3 10 10 6 10 10 10 10 10 10 10 10 10 10 26 45 55 52 55 58 52 55 45 48 45 45 42 39 39 42 39 39 35 32 32 35 29 32
3 3 3 3 3 3 3 3 6 6 10 10 10 6 10 6 10 10 10 23 32 55 52 58 61 61 61 58 48 48 45 42 39 39 39 42 39 39 39 32 32 39 35
3 3 3 3 3 3 3 0 0 0 6 10 10 10 10 10 10 6 10 16 19 32 48 65 71 61 58 58 52 52 48 48 39 45 39 39 39 42 42 39 39 35 32
3 3 3 3 3 6 6 3 3 10 6 10 10 10 10 13 6 6 6 13 13 16 23 48 61 61 58 65 58 52 55 48 39 39 42 35 32 32 32 32 32 29 35
3 3 6 6 6 3 6 10 10 10 10 10 10 10 10 6 10 10 10 13 16 16 16 19 35 48 61 61 55 52 58 55 48 39 35 35 35 35 32 35 32 29 29
16 6 6 6 3 10 10 10 10 10 10 10 10 16 13 10 10 10 10 16 19 19 16 13 13 19 32 45 55 61 55 58 39 35 39 32 35 29 29 32 35 29 26
16 16 13 3 6 10 10 10 10 6 6 10 10 16 13 13 16 10 10 6 10 19 19 13 10 13 13 16 35 48 48 45 42 45 39 35 35 35 29 23 29 29 19
16 16 10 10 3 6 6 3 6 10 10 10 16 13 13 16 10 10 13 10 13 16 16 6 10 13 13 23 16 19 32 42 42 45 39 39 42 39 29 29 29 26 26
19 19 10 6 3 0 0 3 3 3 3 10 13 10 6 6 6 10 6 6 10 6 0 3 13 10 13 13 13 13 23 35 42 35 39 42 32 26 29 32 32 29 23
19 23 13 3 6 6 3 3 6 6 3 6 6 3 6 6 3 10 10 6 6 10 10 3 6 6 10 10 6 0 3 10 23 29 29 35 35 23 26 23 32 32 29
16 23 19 6 10 10 6 10 10 6 6 6 6 6 0 3 0 6 6 6 13 10 6 3 3 6 10 6 10 10 0 0 0 10 29 32 32 32 26 23 26 29 23
13 19 19 19 10 16 13 10 6 3 3 6 6 3 10 10 10 6 10 10 10 6 13 13 13 13 10 10 6 6 3 0 0 0 6 16 26 29 32 32 35 35 32
10 13 19 10 10 16 13 6 6 10 13 6 13 10 10 10 10 10 10 10 6 6 6 16 13 10 10 16 13 3 6 3 3 0 0 0 3 13 16 26 35 29 32
6 6 3 13 13 10 10 13 13 16 16 13 13 16 13 10 10 10 13 13 10 10 10 10 13 10 10 13 6 0 6 0 3 0 0 0 0 0 3 6 13 16 23
3 10 6 6 6 13 16 13 13 16 16 16 16 19 16 16 10 10 10 10 13 10 13 10 10 6 10 10 6 10 13 10 0 0 0 0 0 0 0 0 3 3 3
16 13 13 16 13 19 19 19 19 16 16 19 16 13 16 16 16 13 10 10 10 13 13 13 10 6 6 6 6 13 13 10 0 0 0 0 0 0 0 0 0 0 0
16 16 16 16 23 23 19 19 26 19 19 19 16 19 19 16 16 16 13 13 13 13 16 16 10 6 10 10 13 16 13 13 13 0 0 0 0 0 0 0 0 0 0
19 19 16 19 16 23 19 13 10 19 23 23 19 19 19 19 23 23 19 16 16 16 19 16 16 13 13 16 13 10 10 10 16 3 0 0 0 0 0 0 0 0 0
19 13 16 23 19 23 19 13 13 23 26 23 23 26 23 19 19 23 19 19 16 16 16 16 16 16 16 16 13 6 3 6 3 3 3 3 0 0 0 0 0 0 0
19 23 23 23 23 23 16 13 16 16 19 19 19 19 19 19 23 23 23 19 19 19 13 13 13 10 10 10 6 13 10 10 10 6 3 3 3 0 0 0 0 0 0
19 19 19 23 16 19 16 16 13 13 13 13 23 23 23 19 19 13 13 16 13 10 10 10 10 10 10 13 13 13 13 10 10 3 10 3 3 3 3 3 0 0 0
13 13 16 16 19 19 16 6 6 16 23 19 19 23 13 16 10 0 0 0 3 10 10 13 13 13 13 10 13 6 10 10 10 6 3 6 3 3 6 6 3 0 0
10 10 10 19 19 23 13 3 0 6 19 16 19 16 16 13 10 16 0 0 0 0 0 10 10 10 10 10 10 10 10 10 10 6 3 3 3 3 10 6 3 0 0
13 13 16 19 19 19 6 3 3 0 6 13 16 19 13 13 13 13 16 16 13 6 0 0 6 10 10 10 10 6 6 3 3 0 3 3 3 6 3 10 3 0 0
13 16 16 13 13 13 10 3 0 3 6 10 10 10 13 13 6 0 6 16 16 16 3 0 0 0 0 0 0 3 3 3 3 0 0 3 6 6 6 6 3 0 0
16 13 13 10 10 13 13 3 0 6 10 10 13 13 0 3 0 0 0 6 13 13 13 3 0 0 0 0 0 0 3 3 0 3 0 0 6 6 6 6 6 6 6
Height
5897 5897 5897 5897 5897 5897 5897 5897 5897 5896 5896 5896 5896 5895 5895 5894 5894 5893 5893 5892 5892 5891 5890 5890 5889 5888 5888 5887 5887 5886 5886 5886 5886 5887 5887 5887 5887 5887 5888 5888 5888 5888 5888
5897 5897 5897 5897 5897 5896 5897 5897 5896 5896 5896 5896 5895 5894 5894 5893 5893 5892 5891 5891 5890 5889 5889 5888 5887 5887 5886 5885 5885 5884 5884 5884 5884 5884 5885 5885 5885 5885 5885 5886 5886 5886 5886
5897 5897 5897 5897 5896 5896 5896 5896 5896 5896 5895 5895 5894 5894 5893 5892 5892 5891 5890 5889 5889 5888 5887 5886 5885 5884 5884 5883 5883 5882 5882 5882 5881 5882 5882 5882 5883 5883 5883 5883 5883 5884 5884
5897 5897 5896 5896 5896 5896 5896 5895 5894 5894 5894 5894 5893 5892 5892 5891 5890 5889 5888 5888 5887 5886 5885 5884 5884 5883 5882 5881 5881 5880 5879 5879 5879 5879 5879 5880 5880 5880 5881 5881 5881 5881 5881
5897 5897 5897 5896 5896 5896 5895 5895 5894 5894 5893 5893 5892 5891 5891 5890 5889 5887 5886 5886 5885 5884 5883 5882 5882 5881 5880 5879 5878 5878 5877 5876 5876 5876 5877 5877 5877 5878 5878 5878 5878 5879 5879
5898 5897 5897 5896 5895 5895 5894 5894 5893 5892 5891 5891 5891 5890 5889 5888 5887 5886 5885 5884 5882 5881 5880 5880 5879 5878 5877 5877 5876 5875 5874 5874 5874 5873 5873 5874 5874 5874 5875 5875 5875 5876 5876
5898 5897 5896 5895 5895 5894 5893 5893 5892 5891 5890 5889 5889 5888 5888 5887 5885 5884 5883 5882 5880 5879 5878 5878 5877 5876 5875 5874 5874 5873 5871 5871 5871 5870 5870 5870 5871 5871 5871 5872 5872 5872 5873
5897 5896 5896 5895 5894 5893 5892 5891 5890 5889 5888 5887 5887 5886 5886 5886 5884 5883 5881 5880 5878 5877 5876 5875 5874 5873 5872 5872 5871 5870 5869 5868 5868 5867 5867 5867 5867 5867 5867 5867 5868 5869 5869
5896 5896 5895 5894 5893 5892 5891 5890 5889 5888 5887 5886 5885 5884 5883 5883 5882 5881 5879 5878 5876 5875 5874 5873 5872 5870 5869 5869 5868 5867 5866 5865 5865 5864 5864 5863 5862 5863 5863 5863 5864 5865 5865
5896 5895 5894 5893 5891 5890 5889 5888 5887 5886 5885 5884 5883 5882 5881 5880 5879 5878 5877 5876 5874 5872 5871 5870 5869 5867 5866 5865 5864 5864 5863 5862 5861 5861 5860 5859 5859 5858 5859 5859 5860 5861 5861
5894 5893 5892 5891 5890 5888 5887 5886 5885 5884 5883 5882 5881 5880 5878 5877 5876 5875 5874 5873 5871 5869 5868 5866 5865 5864 5863 5862 5861 5860 5859 5858 5857 5856 5856 5855 5855 5854 5855 5855 5856 5856 5857
5893 5892 5890 5889 5888 5887 5885 5884 5883 5882 5881 5879 5878 5877 5876 5874 5873 5872 5871 5869 5868 5866 5864 5863 5861 5860 5859 5858 5857 5856 5855 5854 5853 5853 5852 5851 5851 5850 5850 5850 5851 5851 5852
5892 5890 5889 5887 5886 5885 5883 5882 5881 5879 5878 5877 5876 5874 5873 5872 5870 5869 5867 5866 5864 5863 5861 5860 5858 5857 5855 5854 5853 5852 5851 5850 5849 5848 5848 5847 5846 5846 5846 5846 5846 5846 5847
5890 5889 5887 5885 5884 5883 5881 5880 5878 5877 5876 5874 5873 5872 5870 5868 5867 5865 5864 5862 5861 5859 5858 5856 5855 5853 5851 5850 5849 5848 5847 5846 5845 5844 5843 5842 5842 5841 5841 5841 5841 5841 5841
5888 5886 5884 5883 5882 5880 5879 5878 5876 5875 5873 5872 5870 5869 5867 5865 5863 5861 5860 5858 5857 5855 5854 5852 5851 5849 5847 5846 5845 5843 5842 5841 5840 5839 5838 5837 5837 5836 5836 5836 5836 5836 5836
5885 5883 5882 5880 5879 5877 5876 5875 5873 5872 5870 5869 5867 5865 5864 5862 5860 5858 5856 5854 5852 5851 5849 5848 5847 5845 5843 5841 5840 5839 5837 5836 5835 5834 5833 5832 5831 5831 5831 5830 5830 5830 5830
5882 5880 5879 5877 5876 5874 5872 5871 5870 5868 5867 5865 5863 5862 5860 5858 5856 5854 5852 5850 5848 5846 5845 5843 5842 5840 5838 5836 5835 5834 5832 5831 5830 5829 5827 5826 5826 5826 5825 5825 5825 5824 5824
5878 5877 5875 5873 5871 5870 5868 5867 5865 5864 5862 5860 5859 5857 5855 5853 5851 5849 5847 5845 5843 5841 5840 5838 5837 5835 5833 5831 5830 5828 5827 5825 5824 5823 5822 5821 5820 5820 5820 5819 5819 5819 5818
5874 5872 5870 5868 5867 5865 5863 5862 5860 5858 5857 5855 5853 5851 5850 5848 5846 5844 5842 5840 5838 5836 5834 5833 5831 5829 5827 5825 5824 5822 5821 5819 5818 5817 5816 5815 5814 5814 5814 5813 5812 5812 5812
5869 5868 5866 5864 5862 5860 5858 5856 5854 5853 5851 5849 5847 5845 5844 5841 5839 5837 5835 5834 5832 5830 5828 5826 5824 5823 5821 5819 5817 5816 5815 5813 5812 5811 5810 5809 5808 5807 5807 5806 5806 5805 5805
5864 5862 5860 5858 5856 5854 5852 5850 5848 5846 5845 5843 5841 5838 5836 5834 5832 5830 5828 5827 5825 5823 5821 5819 5818 5816 5814 5812 5811 5809 5808 5807 5805 5804 5803 5802 5801 5800 5800 5799 5799 5798 5798
5858 5856 5854 5852 5850 5848 5846 5844 5842 5840 5838 5836 5834 5831 5829 5827 5825 5823 5821 5819 5818 5816 5814 5812 5811 5809 5807 5805 5803 5802 5800 5799 5798 5798 5796 5795 5794 5793 5792 5792 5791 5791 5790
5852 5850 5848 5846 5844 5842 5839 5837 5835 5832 5830 5828 5826 5824 5822 5819 5817 5815 5813 5811 5810 5808 5806 5805 5803 5802 5800 5798 5796 5795 5793 5792 5791 5790 5789 5788 5787 5786 5785 5784 5783 5783 5782
5846 5844 5841 5839 5837 5835 5832 5830 5828 5825 5823 5820 5818 5816 5814 5812 5810 5808 5806 5804 5802 5800 5799 5797 5795 5794 5792 5790 5788 5787 5785 5784 5783 5782 5781 5780 5779 5778 5777 5776 5775 5775 5774
5838 5836 5834 5832 5830 5827 5825 5823 5820 5817 5814 5812 5810 5808 5806 5804 5802 5799 5797 5795 5794 5792 5790 5788 5787 5785 5784 5782 5780 5779 5777 5776 5775 5774 5773 5772 5771 5771 5770 5769 5767 5766 5765
5830 5828 5826 5824 5821 5819 5817 5814 5812 5809 5807 5805 5802 5800 5797 5795 5793 5790 5788 5787 5785 5784 5782 5780 5779 5777 5775 5773 5771 5770 5768 5767 5766 5766 5765 5764 5763 5762 5762 5761 5759 5758 5757
Wind_Speed
3 3 2 2 2 2 2 3 3 3 3 3 4 4 3 4 3 4 5 6 7 8 8 8 7 7 8 9 9 8 8 8 9 9 9 9 9 9 9 9 9 9 8
3 3 2 2 1 1 2 3 3 3 3 4 5 4 5 4 5 6 6 7 8 8 8 8 8 8 9 9 9 9 9 8 9 10 9 9 9 9 9 10 9 9 9
3 2 1 2 2 2 3 3 3 3 4 4 5 5 6 6 7 8 8 8 8 9 9 9 9 9 9 9 10 10 10 10 9 10 10 10 9 9 9 10 10 9 9
2 2 2 2 2 3 3 4 4 4 5 5 6 6 7 7 8 9 8 8 9 9 10 10 10 9 10 10 11 11 11 11 10 10 10 10 10 10 10 10 10 10 10
2 2 3 2 3 4 4 5 5 6 6 6 7 6 7 8 10 9 9 9 10 10 10 11 10 10 9 10 11 11 11 11 11 11 11 11 10 10 10 10 10 11 11
3 3 3 3 4 4 5 6 6 7 7 8 7 7 8 9 10 9 9 10 10 10 10 10 10 10 10 10 11 12 13 12 12 13 12 13 12 11 11 12 12 12 12
2 3 3 4 4 5 6 6 7 8 9 8 7 7 8 9 10 10 10 10 10 10 10 10 11 11 10 11 11 13 13 13 13 13 13 13 13 13 12 13 14 13 13
3 3 4 5 5 6 7 8 9 9 9 8 8 8 8 8 9 10 10 10 10 11 11 11 11 12 12 12 13 13 13 14 14 14 15 15 15 15 14 14 14 14 14
4 4 6 6 6 7 9 9 9 9 9 8 8 9 9 9 10 10 10 10 11 11 11 11 12 13 13 13 14 15 15 14 14 15 15 16 16 16 16 15 14 14 14
5 5 6 7 8 8 9 9 9 9 9 10 9 9 10 10 11 11 11 11 12 13 13 13 13 13 13 14 15 16 15 15 15 15 16 16 16 16 16 15 15 15 15
6 7 7 8 9 10 10 10 10 10 10 11 11 11 11 11 12 12 12 13 13 13 14 14 14 13 14 14 14 15 15 16 15 15 16 16 17 17 17 17 17 17 17
7 8 8 9 10 10 10 11 11 11 11 12 12 12 13 13 13 14 14 14 15 14 14 14 14 14 15 15 15 16 16 16 16 15 15 16 17 17 17 18 18 18 18
8 9 9 9 10 10 11 11 12 12 12 12 13 13 14 14 14 15 15 15 16 16 15 14 14 15 15 15 15 16 16 16 17 16 16 16 17 17 18 19 19 19 18
10 10 11 10 10 11 11 11 12 12 12 13 13 13 14 15 15 15 16 16 16 16 16 15 15 15 15 16 16 16 16 17 17 17 18 18 17 17 18 19 20 20 19
12 12 12 12 12 12 12 12 13 13 13 13 13 14 14 14 15 16 16 16 16 16 16 16 16 16 16 16 17 17 17 18 17 18 18 18 18 19 19 19 19 19 19
13 13 14 13 13 14 14 14 14 15 14 15 15 15 15 16 16 17 17 17 17 17 16 17 17 18 17 17 17 17 17 18 18 18 18 18 18 18 18 19 19 20 19
15 15 15 15 15 16 16 16 16 16 16 17 17 18 17 18 18 18 18 18 18 18 18 18 19 19 19 18 18 18 18 19 19 19 18 18 18 19 19 19 19 20 20
16 17 17 17 17 18 17 18 18 19 19 19 20 20 20 20 20 20 20 20 20 19 19 20 20 21 21 20 20 20 20 20 20 20 20 19 19 20 20 20 20 21 21
18 18 18 19 19 19 19 20 20 21 21 21 21 21 22 22 22 22 22 21 21 21 21 21 21 22 22 22 21 20 20 21 21 21 22 22 22 22 22 22 22 22 22
19 20 20 21 21 21 21 22 22 22 22 23 23 23 24 24 24 24 24 23 23 23 22 22 22 23 23 23 22 21 21 22 22 23 22 22 23 23 23 23 24 24 24
21 22 22 22 22 22 22 23 24 24 24 24 24 24 25 25 25 25 25 25 25 25 24 24 24 23 23 23 23 22 22 23 23 24 23 23 24 24 24 25 25 25 25
24 23 23 23 23 24 24 25 25 25 25 25 25 25 26 26 25 25 26 26 26 26 25 25 25 23 23 24 24 24 24 24 24 24 24 25 25 25 25 26 26 26 26
25 24 25 25 25 26 26 26 27 27 27 27 27 27 26 26 26 27 27 27 27 26 26 26 26 25 25 25 26 25 25 25 25 25 26 26 25 25 26 26 26 27 28
26 27 27 27 27 27 27 28 28 29 29 28 28 27 27 28 28 28 27 28 28 27 27 27 27 26 26 27 28 27 27 27 27 27 27 27 26 27 26 26 27 27 28
28 28 28 29 29 29 29 30 30 30 28 28 29 29 29 28 29 29 29 29 29 29 29 29 28 28 28 28 29 30 29 29 29 29 29 29 28 28 28 27 28 28 28
30 30 30 31 31 31 31 31 32 31 30 30 30 29 29 29 29 29 30 30 30 30 30 29 29 29 30 30 30 31 31 30 30 30 29 29 29 29 28 28 28 28 28
Wind_Direction
98 84 68 57 61 55 29 7 354 339 342 343 336 328 320 313 311 312 306 302 300 298 293 289 284 280 279 278 277 273 271 262 255 257 258 260 261 263 263 265 267 262 261
89 82 65 41 37 25 5 348 351 346 330 327 328 321 320 318 316 313 305 300 295 296 291 288 288 284 284 282 278 274 270 266 261 259 262 261 263 265 262 261 264 265 260
83 67 35 355 342 341 339 329 325 328 316 315 315 308 309 317 314 314 305 302 295 295 293 294 293 288 285 284 281 279 276 272 268 263 262 263 263 266 267 264 263 265 263
74 48 5 358 340 337 326 308 303 318 309 305 304 304 308 313 309 311 308 306 302 302 297 299 298 295 288 286 286 285 279 276 274 272 267 265 263 263 265 265 264 263 266
30 9 7 5 338 323 317 302 295 305 306 298 298 301 305 310 315 315 313 307 307 304 301 301 302 298 291 291 291 291 288 283 282 278 273 268 265 264 263 264 262 263 262
12 5 359 346 333 322 315 303 301 306 307 304 305 307 310 313 316 314 311 309 308 303 300 299 300 298 293 293 296 293 292 288 284 284 276 270 265 262 263 264 265 264 265
360 351 349 338 327 320 312 308 309 311 311 309 306 306 310 315 315 315 312 310 309 304 303 302 298 297 293 292 295 295 293 291 286 281 278 274 268 265 264 264 265 264 264
343 338 338 333 327 321 314 307 309 311 313 309 306 307 307 309 312 315 313 309 311 307 303 302 299 296 294 293 293 294 294 290 286 280 278 274 270 265 265 263 264 262 263
345 340 334 327 323 320 315 310 312 315 312 307 305 304 304 305 308 311 312 309 308 306 300 298 300 298 295 294 295 293 294 289 288 285 281 277 271 265 264 262 261 265 263
329 325 323 323 321 315 312 309 311 313 309 306 304 304 305 305 306 307 308 308 307 304 301 297 295 293 291 291 291 292 292 290 289 287 283 280 276 270 263 262 263 267 268
327 321 316 316 317 314 311 309 311 309 306 303 302 302 303 304 305 306 306 307 307 306 301 297 294 294 293 292 293 292 291 292 291 287 282 282 279 274 270 266 265 267 269
324 324 321 318 313 309 310 310 310 309 306 304 302 301 300 301 302 302 303 304 306 305 302 298 296 297 294 292 292 291 290 291 291 291 286 281 280 277 273 270 267 267 269
324 324 324 319 317 311 310 311 311 309 308 304 302 301 300 302 302 302 301 304 305 304 303 300 299 297 297 295 293 293 291 290 290 289 288 287 283 278 275 271 270 268 271
315 314 314 314 317 318 316 316 317 317 315 313 309 306 304 304 304 301 300 300 301 301 301 300 299 300 298 296 294 293 292 289 288 287 287 285 282 279 278 275 272 270 270
310 310 310 308 308 309 309 309 311 312 313 312 311 310 310 309 307 306 304 301 299 299 297 296 296 296 296 296 294 292 293 291 288 286 286 283 281 280 278 277 276 273 272
310 308 306 304 303 303 302 303 304 305 307 307 307 307 308 308 307 307 306 303 301 300 299 297 297 297 298 296 294 293 294 293 290 287 286 284 283 282 281 279 278 276 275
307 306 302 300 301 300 299 299 300 302 302 303 303 302 302 303 304 305 305 303 300 300 301 300 299 298 298 296 294 291 292 291 289 287 286 283 280 278 279 280 280 278 277
301 302 301 299 298 298 297 296 297 299 299 299 300 300 299 299 299 300 301 301 299 298 298 298 298 296 296 294 291 288 289 289 288 287 285 284 281 278 278 277 279 278 278
301 302 299 298 298 297 297 296 296 297 297 297 296 297 297 296 296 296 295 296 297 296 296 296 296 296 295 293 290 287 286 287 287 287 286 284 282 279 279 280 280 280 278
301 303 300 298 299 298 296 295 294 294 294 294 294 294 296 295 294 293 293 294 296 296 296 294 293 294 293 292 290 287 285 286 286 286 286 284 282 282 281 282 281 281 280
300 302 301 299 298 297 297 295 294 294 294 294 294 294 294 293 293 291 291 291 292 293 293 292 292 293 291 290 290 287 285 285 284 284 285 285 283 282 280 280 280 281 280
298 299 300 299 297 297 296 296 296 295 294 293 292 292 292 292 291 289 289 289 289 289 289 289 290 290 289 288 287 286 286 284 283 283 284 284 284 283 281 280 280 280 279
298 296 296 296 296 296 295 295 296 296 294 293 293 291 290 290 289 289 288 287 287 288 288 287 286 286 286 285 285 284 284 284 282 282 283 283 283 283 283 281 280 279 278
295 294 293 293 295 295 294 293 295 295 294 293 292 291 290 289 289 290 289 288 288 287 287 287 286 284 285 285 284 284 283 283 282 282 282 282 282 283 283 283 282 281 281
292 292 292 291 292 293 292 292 292 293 293 295 294 291 290 289 290 289 288 287 287 287 284 285 285 284 285 285 285 284 283 283 282 282 281 281 282 283 283 284 283 282 281
290 291 291 290 291 292 293 293 293 293 293 294 294 294 293 291 290 288 287 286 285 286 284 285 285 285 285 285 285 283 284 283 283 282 280 281 281 282 282 282 283 283 283